Location: Kopernik Observatory
(42.0014°N, 76.0372°W)
Time: 00:30:54
(UTC-04:00)

Daily predictions for brighter satellites

Satellite Brightness Start Highest point End
(mag) Time Altitude Azimuth Time Altitude Azimuth Time Altitude Azimuth
Cosmos 1869 Rocket 3.7 00:04:37 59° E 00:04:41 59° E 00:09:06 10° NNE
Cosmos 2333 Rocket 2.4 00:00:12 10° NNW 00:05:51 60° WSW 00:07:11 47° SSW
ALOS 2 3.2 00:06:37 43° E 00:07:00 44° ENE 00:11:11 10° N
CZ-4C R/B 3.8 00:10:20 46° NE 00:10:20 46° NE 00:13:11 10° N
SL-16 R/B 2.4 00:06:28 10° NNW 00:12:07 62° ENE 00:13:41 45° ESE
Cosmos 1869 4.3 00:09:29 10° NNW 00:13:13 36° W 00:13:24 36° W
Lacrosse 4 Rocket 2.2 00:09:41 10° NNW 00:13:56 45° ENE 00:14:35 41° E
Cosmos 1455 4.0 00:18:54 10° NW 00:21:50 21° W 00:21:56 21° W
Cosmos 372 Rocket 4.2 00:22:14 51° ESE 00:22:29 52° ESE 00:27:33 10° NNE
Cosmos 2074 Rocket 4.2 00:22:07 47° SE 00:23:36 60° E 00:29:47 10° NNE
Landsat 5 4.0 00:23:40 50° E 00:23:58 51° ENE 00:28:22 10° N
ASTEX 1 3.7 00:19:59 10° NNE 00:24:44 49° E 00:24:59 48° ESE
Meteor 1-26 Rocket 4.1 00:20:41 10° N 00:26:18 83° E 00:27:26 59° SSE
Cosmos 2297 Rocket 2.3 00:25:45 42° SW 00:27:40 70° WNW 00:33:20 10° NNE
ERBS 3.8 00:30:25 35° NNE 00:30:25 35° NNE 00:32:36 10° NE
Cosmos 1709 Rocket 4.4 00:27:28 36° SW 00:29:47 55° W 00:35:47 10° N
H-2A R/B 2.5 00:26:35 10° NNE 00:30:32 72° ENE 00:30:32 72° ENE
CZ-4C R/B 4.4 00:25:43 10° NNW 00:31:37 29° NE 00:38:03 10° E
Cosmos 2221 Rocket 3.9 00:28:42 10° NNW 00:33:11 55° W 00:33:22 55° WSW
COS B Rocket 4.2 00:32:00 10° NNW 00:35:12 39° WNW 00:35:12 39° WNW
GEOS 3 Rocket 3.6 00:35:41 59° SSW 00:36:10 62° WSW 00:41:21 10° NW
Cosmos 1703 Rocket 4.1 00:32:48 10° NNW 00:36:58 46° W 00:37:00 46° W
ATLAS 2AS CENTAUR R/B 3.1 00:32:38 25° SW 00:37:26 76° NW 00:45:35 10° NNE
Cosmos 2219 Rocket 3.6 00:33:10 10° NW 00:37:33 24° WSW 00:38:24 23° WSW
COSMOS 2455 2.7 00:34:51 10° NNW 00:40:54 80° WSW 00:42:07 58° S
CZ-2C R/B 3.4 00:37:04 10° NNE 00:41:51 35° E 00:42:07 35° ESE
Okean 1-7 3.1 00:38:12 10° NNW 00:42:15 64° WNW 00:42:15 64° WNW
Cosmos 2251 Rocket 4.2 00:39:22 10° N 00:44:32 47° ENE 00:45:50 39° ESE
Cosmos 1603 4.5 00:40:03 10° NNW 00:45:30 45° ENE 00:47:32 33° ESE
Meteor 2-10 Rocket 4.0 00:41:10 10° N 00:46:38 57° ENE 00:47:50 47° ESE
MOS 1-B Rocket 4.2 00:47:44 42° ESE 00:49:22 57° ENE 00:54:51 10° N
Cosmos 389 Rocket 3.8 00:53:05 10° NNW 00:55:35 36° NW 00:55:35 36° NW
Geosat 3.8 00:51:33 10° NNE 00:56:37 81° ESE 00:57:05 72° S
Cosmos 1674 Rocket 4.2 00:52:25 10° N 00:56:41 45° ENE 00:56:48 45° E
Meteor 2-3 Rocket 3.7 00:57:40 58° SSW 00:58:50 79° W 01:04:36 10° N
ATLAS 3B R/B 2.6 00:53:54 10° NW 01:00:48 65° WSW 01:02:13 53° S
Cosmos 2184 Rocket 4.0 00:59:55 51° SSW 01:01:31 74° W 01:07:44 10° N
Helios 1A Rocket 3.0 00:58:07 10° NNE 01:01:59 76° NNE 01:01:59 76° NNE
USA 238 DEB 3.9 00:55:40 10° NNW 01:02:43 68° NE 01:06:14 31° SE
USA 238 3.9 00:55:47 10° NNW 01:02:48 67° NE 01:06:22 31° SE
Cosmos 2237 Rocket 3.7 01:00:20 10° NW 01:04:36 22° W 01:05:04 22° WSW
SL-08 ROCKET BODY 4.5 01:08:49 51° SSW 01:10:21 72° W 01:16:33 10° N
FALCON 9 R/B 3.6 01:01:10 10° W 01:09:35 31° SW 01:09:35 31° SW
Cosmos 1892 3.2 01:11:42 57° N 01:11:42 57° N 01:14:48 10° N
Cosmos 1908 Rocket 4.5 01:12:15 37° E 01:12:15 37° E 01:16:03 10° NNE
NOSS 2-3 (E) 4.0 01:11:18 60° WSW 01:12:10 77° NW 01:17:54 10° NNE
Cosmos 921 Rocket 3.9 01:14:28 37° E 01:14:28 37° E 01:17:48 10° NNE
Cosmos 44 4.1 01:14:57 42° ESE 01:14:57 42° ESE 01:19:59 10° NE
CZ-4B R/B 3.4 01:17:43 24° WNW 01:17:43 24° WNW 01:19:39 10° NW
Cosmos 2341 Rocket 4.2 01:16:06 47° SE 01:17:43 61° E 01:24:00 10° NNE
Uosat 12 SS-18 rocket 4.2 01:18:54 73° ESE 01:18:54 73° ESE 01:23:24 10° NE
H-2A ROCKET BODY 4.2 00:48:28 10° W 01:21:24 40° SSW 01:23:23 37° S
Cosmos 2084 Rocket 4.1 01:25:05 42° ENE 01:25:05 42° ENE 01:27:46 10° NE
Cosmos 1782 3.1 01:20:30 10° N 01:23:58 66° N 01:23:58 66° N
PSLV R/B 4.5 01:25:18 48° ENE 01:25:22 48° ENE 01:29:19 10° N
Sich 1 Rocket 3.6 01:27:48 76° E 01:27:48 76° E 01:32:15 10° N
Cosmos 494 Rocket 4.0 01:23:45 10° NNW 01:29:02 79° ENE 01:29:54 62° SE
USA 234 4.0 01:23:06 10° ESE 01:29:23 52° NNE 01:35:40 10° NW
Cosmos 1340 Rocket 3.5 01:32:25 47° NW 01:32:25 47° NW 01:35:50 10° N
Aureole 2 Rocket 4.4 01:29:55 10° NNW 01:31:09 21° NW 01:31:09 21° NW
Cosmos 962 Rocket 4.4 01:32:22 55° S 01:33:49 80° E 01:39:57 10° N
Cosmos 44 Rocket 3.9 01:39:15 42° WSW 01:40:36 55° NW 01:45:46 10° NNE
Cosmos 1825 3.0 01:42:13 43° ENE 01:42:13 43° ENE 01:45:23 10° NNE
SL-8 Rocket 4.4 01:40:17 41° SE 01:42:10 56° E 01:48:20 10° NNE
Cosmos 1733 Rocket 3.9 01:46:04 39° W 01:46:14 39° WNW 01:50:27 10° N
Cosmos 1408 3.2 01:49:45 52° ENE 01:49:45 52° ENE 01:53:00 10° NNE
Coronas F rocket 4.2 01:53:28 16° NNW 01:53:28 16° NNW 01:54:17 10° NNW
Lacrosse 4 Rocket 3.6 01:49:12 10° WNW 01:50:55 17° W 01:50:55 17° W
Cosmos 2263 Rocket 2.8 01:51:58 38° SE 01:53:01 41° ESE 01:58:20 10° NE
SL-16 R/B 3.9 01:51:50 10° WNW 01:55:32 19° W 01:55:32 19° W
Meteor 1-27 Rocket 3.7 01:50:11 10° NNW 01:56:04 79° W 01:57:21 55° S
BREEZE-M DEB (TANK) 3.5 01:53:48 10° WNW 01:57:18 34° WNW 01:57:18 34° WNW
NOSS 3-4 (A) 3.8 01:57:31 44° SSE 01:59:01 54° ESE 02:05:23 10° NE
NOSS 3-4 (C) 3.8 01:57:37 44° SSE 01:59:07 53° ESE 02:05:28 10° NE
Cosmos 1378 Rocket 3.4 01:55:39 10° NNW 02:00:01 74° W 02:00:01 74° W
NOSS 3-2 (A) 4.1 01:54:01 10° NNW 02:01:28 73° NE 02:09:08 12° SE
Meteor 2-13 Rocket 4.3 02:00:36 51° S 02:02:17 88° E 02:08:28 10° N
Cosmos 1356 Rocket 4.5 02:03:04 32° WNW 02:03:04 32° WNW 02:06:39 10° N
Okean 3 3.3 01:59:22 10° N 02:03:41 90° N 02:03:49 85° S
Cosmos 2366 rocket 4.3 02:01:50 39° SSE 02:03:55 59° E 02:09:59 10° NNE
Cosmos 1862 3.4 02:06:05 66° WNW 02:06:05 66° WNW 02:09:53 10° N
Okean 2 Rocket 3.0 02:10:09 72° SSE 02:10:34 83° E 02:15:06 10° N
CZ-2C R/B 3.6 02:11:35 45° SW 02:12:36 50° W 02:18:08 10° NNW
Cosmos 1238 Rocket 3.7 02:09:26 10° NNW 02:12:49 37° WNW 02:12:49 37° WNW
Cosmos 1782 Rocket 3.5 02:19:57 62° WSW 02:20:15 64° W 02:24:36 10° N
CZ-4C R/B 2.8 02:13:46 10° NW 02:20:55 81° WSW 02:26:09 23° SSE
CZ-2C R/B 3.9 02:17:32 10° N 02:22:00 29° WNW 02:23:38 24° W
Cosmos 1943 3.1 02:16:20 10° NNW 02:22:01 73° WSW 02:23:35 48° S
Cosmos 1727 Rocket 4.0 02:17:36 10° N 02:23:53 75° E 02:26:42 35° SSE
Cosmos 1606 4.2 02:25:27 10° NNW 02:28:05 26° WNW 02:28:05 26° WNW
Cosmos 864 Rocket 4.4 02:27:03 42° S 02:29:20 87° E 02:35:31 10° N
Landsat 4 3.6 02:33:45 73° SE 02:34:02 80° ENE 02:37:51 10° N
Cosmos 1867 3.6 02:34:03 10° NNW 02:39:34 82° NE 02:43:22 21° SE
PSLV R/B 3.5 02:35:44 10° N 02:39:56 69° WNW 02:40:32 59° SW
Resurs 1-4 Rocket 4.4 02:37:55 10° NE 02:40:59 15° E 02:44:01 10° SE
CRYOSAT 2 4.2 02:36:21 10° N 02:41:13 83° W 02:42:30 50° SSW
Cosmos 1975 Rocket 3.8 02:39:01 10° NNW 02:43:04 37° W 02:43:12 37° W
USA 161 4.2 02:44:56 12° ESE 02:46:20 16° ENE 02:48:08 10° NNE
BREEZE-M DEB (TANK) 4.1 02:32:44 10° WSW 02:46:26 57° NNW 02:50:20 10° NE
Cosmos 1242 Rocket 2.3 02:43:22 10° N 02:46:52 84° ENE 02:47:00 81° SE
Cosmos 1607 4.5 02:42:12 10° NW 02:47:44 36° WSW 02:48:30 35° SW
Cosmos 1624 Rocket 3.9 02:52:41 42° SSW 02:54:30 85° ESE 02:59:46 10° NNE
Cosmos 1536 Rocket 3.4 02:50:38 10° N 02:55:02 89° ESE 02:56:23 44° S
IRAS Rocket 4.2 02:51:39 10° NNE 02:57:12 87° ESE 02:59:36 36° SSW
NPP 3.6 02:59:02 10° NNE 03:04:28 86° WNW 03:06:51 35° SSW
Meteor 1-20 Rocket 4.4 03:01:49 28° S 03:04:57 70° E 03:10:44 10° NNE
SL-16 R/B 3.7 03:02:15 10° SE 03:08:03 42° ENE 03:13:51 10° N
ADEOS 3.9 03:03:28 10° NNE 03:08:39 61° ESE 03:11:28 27° S
Cosmos 2151 Rocket 3.9 03:07:47 40° SW 03:08:56 52° W 03:13:19 10° N
BREEZE-M TANK 1.6 03:07:12 10° WNW 03:10:26 84° NNE 03:13:02 10° ESE
Okean 1 3.6 03:06:43 10° N 03:10:41 63° E 03:12:40 28° SSE
Iridium 4 Rocket 3.5 03:06:27 10° NNW 03:10:55 53° W 03:12:32 36° SW
Okean 1-7 Rocket 4.2 03:07:40 10° N 03:12:11 56° E 03:15:29 18° SSE
USA 234 3.3 03:06:02 10° SSE 03:12:21 52° SW 03:18:44 10° NW
Cosmos 1812 2.7 03:09:11 10° N 03:13:06 80° E 03:14:39 35° SSE
Cosmos 1184 Rocket 4.2 03:13:16 27° WNW 03:13:22 27° WNW 03:16:17 10° NNW
ARIANE 5 R/B 3.5 03:10:12 10° NNE 03:14:53 40° E 03:18:18 17° SSE
Abrixas rocket 2.1 03:15:16 65° SSW 03:15:39 77° SSE 03:19:00 10° ENE
RESURS DK-1 2.7 03:14:33 38° WSW 03:15:49 53° WNW 03:19:54 10° NNE
Cosmos 1452 Rocket 4.1 03:12:59 25° SSE 03:15:51 51° ESE 03:20:57 10° NNE
ERS-2 2.2 03:14:48 10° N 03:18:30 67° WNW 03:19:28 45° SW
CBERS-1 4.1 03:17:41 10° N 03:22:49 69° WNW 03:25:21 30° SSW
Okean 1 Rocket 3.1 03:23:13 30° S 03:25:21 81° E 03:29:51 10° N
Okean O Rocket 4.2 03:23:21 10° ENE 03:25:27 13° E 03:27:30 10° ESE
NOSS 3-2 (C) 4.3 03:20:10 10° NW 03:27:21 47° WSW 03:34:29 12° S
CENTAUR R/B 3.5 03:21:52 10° NNW 03:29:36 65° NE 03:37:50 10° SE
CZ-2D R/B 3.2 03:24:34 10° NNE 03:29:44 42° E 03:34:28 12° SSE
Cosmos 1821 Rocket 4.1 03:26:36 21° S 03:31:05 85° E 03:37:32 10° N
Cosmos 2123 Rocket 4.4 03:26:04 10° N 03:32:22 63° E 03:38:36 10° SSE
GP-B 3.2 03:30:37 10° N 03:35:00 59° W 03:37:07 29° SSW
Cosmos 1844 Rocket 3.0 03:31:31 22° S 03:35:10 63° ESE 03:40:47 10° NNE
Cosmos 1844 4.4 03:32:21 17° S 03:36:25 47° ESE 03:41:54 10° NE
Cosmos 2263 Rocket 3.4 03:33:39 17° WSW 03:37:03 31° NW 03:42:03 10° N
COSMOS 2406 3.2 03:35:26 10° NNW 03:41:10 66° WSW 03:46:50 10° S
SL-08 R/B 4.2 03:41:41 25° SW 03:43:35 34° W 03:48:04 10° NNW
Cosmos 1190 Rocket 4.4 03:39:18 10° NNW 03:44:14 44° WSW 03:47:22 21° SSW
Meteor 2-14 Rocket 4.4 03:46:33 16° S 03:51:35 86° E 03:57:41 10° N
Cosmos 2278 Rocket 3.1 03:46:40 12° S 03:51:35 42° ESE 03:56:55 10° NE
Meteor 2-21 Rocket 4.4 03:49:46 17° SSW 03:54:29 78° W 04:00:37 10° N
Cosmos 1140 Rocket 3.8 03:50:30 10° NNW 03:55:38 69° ENE 04:00:44 10° SSE
Spot 4 Rocket 4.2 03:50:38 10° N 03:55:42 59° WNW 03:59:14 20° SW
UNK 3.7 03:52:29 10° SSE 03:57:05 88° ENE 04:01:46 10° NNW
Cosmos 1602 3.6 03:55:28 21° SSW 03:57:59 82° W 04:01:51 10° N
NOSS 2-2 (D) 4.2 03:55:43 18° S 03:58:31 49° ESE 04:03:04 10° NE
Tiangong 1 1.7 03:59:17 28° SW 04:00:01 32° SSW 04:02:48 10° SE
Cosmos 1025 Rocket 3.0 03:56:50 10° N 04:01:09 88° E 04:05:27 10° S
Cosmos 407 Rocket 4.0 03:57:15 10° NW 04:01:59 38° WSW 04:05:49 15° SSW
Meteor 2-15 4.4 03:56:08 10° N 04:02:20 82° W 04:08:28 10° S
ATLAS 5 CENTAUR R/B 3.7 03:56:51 10° NNW 04:02:28 43° NE 04:08:27 10° ESE
Cosmos 1536 2.8 04:04:07 15° S 04:07:26 90° SSW 04:11:32 10° N
Cosmos 676 Rocket 4.3 04:02:31 10° NNW 04:07:28 46° WSW 04:12:23 10° S
Meteor 2-4 Rocket 3.8 04:02:55 10° N 04:08:22 75° E 04:13:42 10° SSE
CZ-4C R/B 4.3 04:04:18 10° WNW 04:08:46 17° WSW 04:11:13 15° SW
Cosmos 2082 Rocket 4.4 04:04:23 10° N 04:09:20 29° NE 04:14:15 10° ESE
SL-27 R/B 3.6 04:08:50 10° NW 04:11:59 27° WSW 04:13:49 18° SW
NOSS 2-2 (C) 3.7 04:09:51 17° SSW 04:12:58 70° ESE 04:17:42 10° NE
USA 161 3.1 04:16:08 17° WSW 04:16:35 18° W 04:18:39 10° NW
IRS-1D 3.7 04:11:39 10° N 04:16:41 59° WNW 04:20:59 13° SSW
Cosmos 1544 Rocket 3.7 04:13:19 10° S 04:17:45 81° E 04:22:11 10° N
UNKNOWN OBJECT B 2.9 04:14:57 10° NNE 04:19:04 90° SSE 04:23:04 10° SSW
Gbstr 26 Del rocket 2.6 04:16:43 17° SW 04:19:39 81° SE 04:23:23 10° ENE
Resurs 1-4 Rocket 2.2 04:16:01 10° N 04:21:19 68° WNW 04:26:22 11° SSW
NOSS 8 (A) 4.5 04:19:17 16° SSW 04:21:58 88° ESE 04:25:42 10° NE
OTV 4 2.0 04:22:22 17° SSW 04:22:40 17° SSW 04:24:42 10° SSE
IRS-1C Rocket 4.4 04:20:14 10° NNE 04:25:30 67° ESE 04:30:43 10° S
MOS 1-B 4.5 04:28:12 10° N 04:33:57 65° WNW 04:39:41 10° SSW
Timation 2 Rocket 4.1 04:28:56 10° NNW 04:35:09 78° ENE 04:41:09 10° SSE
BREEZE-M DEB (TANK) 4.2 04:28:09 10° WNW 04:38:19 46° N 04:41:34 10° E
Cosmos 1892 Rocket 3.7 04:34:27 10° NNW 04:38:42 53° W 04:42:54 10° S
NOSS 2-2 (E) 3.9 04:35:27 12° SW 04:39:22 62° NW 04:44:20 10° NNE
EO 1 Del DPAF 4.4 04:36:44 10° SSW 04:40:00 26° W 04:43:18 10° NW
Cosmos 1633 3.2 04:37:17 11° SSW 04:40:30 38° WNW 04:43:55 10° N
Meteor 1-11 Rocket 4.5 04:35:08 10° SW 04:40:33 40° WNW 04:46:10 10° N
Cosmos 2061 Rocket 4.3 04:37:52 10° S 04:44:08 75° E 04:50:32 10° N
SME Rocket 3.7 04:41:15 10° SSW 04:44:34 30° W 04:48:05 10° NW
ASTRO F (AKARI) 4.4 04:43:04 10° S 04:46:22 69° WSW 04:49:53 10° NNW
Okean-O 4.3 04:42:56 10° NNE 04:46:58 33° E 04:50:58 10° SSE
ADEOS II 4.1 04:44:41 10° NE 04:49:09 27° E 04:53:34 10° SSE
USA 129 2.7 04:49:09 10° SSW 04:51:04 28° W 04:52:59 10° NW
SL-16 R/B 3.3 04:46:14 10° SSW 04:51:44 32° W 04:57:15 10° NNW
Cosmos 1356 4.2 04:49:05 10° SW 04:52:23 36° WNW 04:55:44 10° N
Abrixas rocket 3.9 04:49:56 10° WNW 04:52:59 31° NNW 04:56:01 10° NE
Cosmos 1400 Rocket 3.5 04:50:05 10° SW 04:53:43 38° WNW 04:57:24 10° N
ARIANE 5 R/B 3.8 04:49:48 10° NNW 04:53:48 25° WNW 04:57:48 10° WSW
CZ-2C R/B 3.9 04:50:31 10° S 04:55:11 59° W 04:59:54 10° NNW
Cosmos 1833 Rocket 3.7 04:52:54 10° NNW 04:58:24 52° ENE 05:03:51 10° SE
Cosmos 614 Rocket 4.2 04:54:03 10° NNW 04:59:02 49° WSW 05:03:57 10° S
COSMOS 2487 3.6 04:56:49 10° NW 04:59:54 26° W 05:02:57 10° SSW
CZ-4B R/B 3.2 04:57:00 10° NNE 05:01:34 89° E 05:06:05 10° SSW
Thor Agena Rocket 3.6 04:56:26 10° S 05:01:37 72° WSW 05:06:46 10° NNW
